[[{"header":{"parameterUnit":"m.s-1","parameterCategory":1,"la1":30.2991,"la2":30.254,"lo1":-89.0895,"lo2":-89.0444,"dy":0.0017,"dx":0.0017,"nx":28,"ny":28,"refTime":"2025-06-08T03:00:00:Z","depth":0,"parameterNumber":2,"parameterNumberName":"U-component_of_WINDS"},"data":[0,0,0,0,0,0,0,0,0,0,0,0,0,0,0,0,0,0,0,0,0,0,0,0,0,0,0,0,0,0,0,0,0,0,0,0,0,0,0,0,0,0,0,0,0,0,0,0,0,0,0,0,0,0,0,0,0,0,3.5622,3.5623,0,3.5697,3.5698,3.5699,3.5626,3.5623,3.562,3.5617,3.5697,3.5702,3.5707,0,0,0,0,0,0,0,0,0,0,0,0,0,3.5423,3.5427,3.5622,3.5623,3.5624,3.5697,3.5698,3.5699,3.5626,3.5623,3.5619,3.5616,3.5696,3.5701,3.5707,0,0,0,0,0,0,0,0,0,0,0,0,0,3.5505,3.5428,3.5622,3.5597,3.5595,3.5697,3.5698,3.5699,3.5627,3.5622,3.5618,3.5614,3.5694,3.5701,3.5708,3.584,0,0,3.573,3.5733,0,0,0,0,0,0,0,0,3.55,3.5512,3.5599,3.5598,3.5597,3.5647,3.5657,3.5747,3.5628,3.5615,3.5617,3.5612,3.5685,3.5692,3.5716,3.5844,3.5847,3.5731,3.5735,3.5738,3.574,0,0,0,0,0,0,0,3.5495,3.5509,3.5652,3.5601,3.5599,3.5583,3.559,3.5674,3.5673,3.5616,3.561,3.562,3.5683,3.5709,3.5717,3.5848,3.5731,3.5737,3.5742,3.5744,3.6092,3.6096,0,0,0,0,0,0,3.5491,3.5504,3.565,3.5654,3.5537,3.5591,3.5598,3.5636,3.5672,3.5673,3.5624,3.5616,3.5699,3.5709,3.572,3.5878,3.5738,3.5745,3.5749,3.6087,3.6093,3.6098,0,0,0,0,0,0,3.5487,3.5505,3.5647,3.5578,3.5595,3.5598,3.5641,3.5639,3.5665,3.5678,3.5678,3.565,3.5696,3.571,3.5811,3.588,3.5748,3.5755,3.6081,3.6089,3.6096,3.6195,0,0,0,0,0,0,3.5482,3.5504,3.5552,3.558,3.5599,3.5735,3.5646,3.5644,3.5678,3.5669,3.5703,3.5704,3.5693,3.5801,3.5818,3.5887,3.5761,3.6075,3.6085,3.6093,3.6185,3.6205,3.6221,0,0,0,0,0,3.5475,3.5577,3.5555,3.5573,3.5659,3.5739,3.575,3.5734,3.5683,3.5733,3.5742,3.5703,3.587,3.5812,3.5831,3.5903,3.6071,3.6082,3.6093,3.6177,3.6201,3.6221,0,0,0,0,0,0,3.5557,3.558,3.5555,3.5669,3.5703,3.5726,3.5788,3.5759,3.5808,3.5798,3.5778,3.5786,3.5894,3.5909,3.5844,3.6035,3.5962,3.5978,3.602,3.6043,3.606,3.6054,3.5767,0,0,0,0,0,3.5589,3.565,3.5667,3.5766,3.5785,3.5784,3.5818,3.5804,3.5838,3.5852,3.5868,3.5904,3.5965,3.6005,3.6061,3.6188,3.6196,3.6248,3.6266,3.628,3.6293,3.6364,3.6388,3.6134,3.6134,3.6134,0,0,3.5654,3.5674,3.5714,3.5784,3.5808,3.5874,3.5796,3.5868,3.5918,3.5863,3.5959,3.5974,3.6013,3.6128,3.618,3.6144,3.6366,3.6294,3.6306,3.6311,3.6378,3.6402,3.6424,3.6142,3.614,3.6139,0,0,3.5807,3.5828,3.5914,3.594,3.5978,3.5978,3.5999,3.6028,3.6035,3.6131,3.6092,3.6153,3.6257,3.6287,3.6316,3.6486,3.6453,3.6505,3.6598,3.6667,3.6687,3.6705,3.6766,3.6789,3.6519,3.6519,3.6519,0,3.5884,3.598,3.5962,3.6038,3.6071,3.6025,3.6113,3.614,3.6195,3.622,3.6179,3.6311,3.6334,3.6457,3.6499,3.6524,3.6549,3.65,3.6686,3.6703,3.6719,3.6778,3.6801,3.6525,3.6524,3.6524,3.6523,0,3.6073,3.6141,3.6206,3.626,3.6301,3.6383,3.6379,3.6423,3.6407,3.6412,3.6513,3.654,3.6602,3.6631,3.6615,3.6753,3.673,3.6688,3.6615,3.675,3.6805,3.6827,3.6534,3.6532,3.653,3.6528,0,0,3.6276,3.6322,3.6346,3.6371,3.6412,3.6465,3.6547,3.6607,3.6646,3.6687,3.6756,3.6848,3.6811,3.6844,3.6832,3.6893,3.7028,3.6844,3.6845,3.6878,3.7184,3.7215,3.7241,3.7007,3.7012,3.7015,3.7181,0,3.643,3.657,3.6558,3.6691,3.6756,3.6715,3.6787,3.6821,3.683,3.6887,3.6897,3.6962,3.6907,3.6928,3.6986,3.6999,3.7089,3.6987,3.7073,3.7076,3.7063,3.7269,3.7301,3.7456,3.7202,3.7206,3.7208,0,3.6627,3.6675,3.6815,3.6849,3.6876,3.694,3.6996,3.7051,3.7091,3.7093,3.7133,3.7111,3.7197,3.7123,3.7242,3.7173,3.7208,3.722,3.7226,3.7232,3.7149,3.7281,3.7505,3.7528,3.7242,3.7239,3.7237,0,3.6761,3.6862,3.6959,3.6982,3.7024,3.7071,3.7091,3.7126,3.7164,3.7215,3.724,3.73,3.7333,3.7381,3.7378,3.7325,3.75,3.7425,3.7505,3.7505,3.7542,3.7539,3.7774,3.7566,3.7566,3.7565,3.7565,0,3.6934,3.7021,3.702,3.708,3.7178,3.7166,3.7263,3.7279,3.7311,3.7375,3.7345,3.7406,3.7399,3.7461,3.746,3.756,3.7575,3.758,3.7578,3.7582,3.7582,3.7604,3.7593,3.7572,3.757,3.7569,3.7568,0,3.7099,3.7102,3.7205,3.7238,3.7248,3.7319,3.7348,3.7406,3.7413,3.7495,3.7514,3.7526,3.7598,3.76,3.7683,3.7683,3.7804,3.7791,3.779,3.7787,3.7867,3.786,3.8124,3.8158,3.7928,3.7931,3.7932,0,3.7208,3.7274,3.7315,3.7355,3.7378,3.7444,3.7483,3.7476,3.7519,3.7571,3.7624,3.7693,3.7748,3.7866,3.7883,3.7948,3.7935,3.8024,3.7945,3.7947,3.7937,3.7933,3.794,3.8039,3.8041,3.8043,3.8045,0,3.7402,3.7401,3.7458,3.7518,3.7566,3.7612,3.7655,3.7691,3.7689,3.774,3.7813,3.7856,3.7941,3.8011,3.8075,3.8098,3.8072,3.807,3.8092,3.8096,3.8093,3.8096,3.7832,3.8063,3.8062,3.806,3.8059,3.8058,3.7542,3.76,3.7638,3.7705,3.7737,3.7779,3.7836,3.7852,3.7912,3.7981,3.7974,3.8056,3.8098,3.8181,3.8209,3.8275,3.8245,3.8276,3.8284,3.8292,3.8301,3.8084,3.8287,3.8286,3.8286,3.8285,3.8285,0,3.7734,3.7758,3.7819,3.7881,3.7934,3.7906,3.7954,3.8,3.8073,3.8114,3.817,3.8256,3.8325,3.8349,3.8417,3.8466,3.8456,3.8484,3.8479,3.8486,3.8324,3.8298,3.8491,3.849,3.849,3.849,3.849,3.849,3.784,3.7937,3.7942,3.8057,3.8081,3.816,3.819,3.823,3.8263,3.8361,3.8418,3.8434,3.8469,3.854,3.8604,3.8609,3.8636,3.8669,3.867,3.8517,3.8497,3.8477,3.8453,3.8675,3.8675,3.8826,3.8827,3.8828]},{"header":{"parameterUnit":"m.s-1","parameterCategory":1,"la1":30.2991,"la2":30.254,"lo1":-89.0895,"lo2":-89.0444,"dy":0.0017,"dx":0.0017,"nx":28,"ny":28,"refTime":"2025-06-08T03:00:00:Z","depth":0,"parameterNumber":3,"parameterNumberName":"V-component_of_WINDS"},"data":[0,0,0,0,0,0,0,0,0,0,0,0,0,0,0,0,0,0,0,0,0,0,0,0,0,0,0,0,0,0,0,0,0,0,0,0,0,0,0,0,0,0,0,0,0,0,0,0,0,0,0,0,0,0,0,0,0,0,5.4592,5.4595,0,5.49,5.4903,5.4907,5.4969,5.4966,5.4964,5.4962,5.5273,5.5284,5.5294,0,0,0,0,0,0,0,0,0,0,0,0,0,5.4053,5.4062,5.4591,5.4595,5.4599,5.4899,5.4903,5.4907,5.4969,5.4966,5.4963,5.4961,5.527,5.5282,5.5295,0,0,0,0,0,0,0,0,0,0,0,0,0,5.4316,5.4065,5.4591,5.4666,5.4676,5.4898,5.4903,5.4909,5.497,5.4966,5.4963,5.4959,5.5266,5.5281,5.5297,5.5464,0,0,5.5345,5.5352,0,0,0,0,0,0,0,0,5.4301,5.4336,5.4651,5.4661,5.4673,5.4892,5.4828,5.5095,5.4971,5.4858,5.4962,5.4958,5.5149,5.5174,5.524,5.5479,5.5492,5.5346,5.5356,5.5362,5.5367,0,0,0,0,0,0,0,5.4283,5.4323,5.4713,5.4656,5.4669,5.4683,5.4717,5.4879,5.5019,5.4868,5.4873,5.4909,5.5154,5.5224,5.5247,5.5497,5.5346,5.536,5.5369,5.5375,5.5889,5.5893,0,0,0,0,0,0,5.4252,5.4307,5.4703,5.4722,5.4474,5.4696,5.4733,5.4825,5.5018,5.5044,5.4911,5.491,5.5199,5.5229,5.5259,5.5468,5.5362,5.5377,5.5386,5.5885,5.589,5.5894,0,0,0,0,0,0,5.424,5.4286,5.4691,5.4516,5.4569,5.4709,5.4812,5.4833,5.4903,5.5051,5.5076,5.4957,5.5198,5.5236,5.5413,5.548,5.5384,5.5398,5.588,5.5886,5.5892,5.5888,0,0,0,0,0,0,5.4224,5.4282,5.4348,5.4518,5.4578,5.4841,5.4816,5.4842,5.4931,5.4932,5.5101,5.5125,5.5198,5.5389,5.5429,5.55,5.5411,5.5874,5.5883,5.589,5.5882,5.5893,5.5902,0,0,0,0,0,5.4205,5.4333,5.4351,5.4398,5.4664,5.4845,5.488,5.4962,5.4936,5.5003,5.5098,5.512,5.5466,5.5407,5.5452,5.5528,5.5871,5.588,5.5889,5.5878,5.5891,5.5902,0,0,0,0,0,0,5.4167,5.4357,5.4379,5.4566,5.4689,5.4855,5.4942,5.4973,5.5104,5.51,5.5195,5.5233,5.5404,5.5484,5.5414,5.5701,5.5667,5.5685,5.5642,5.5656,5.5665,5.5643,5.5424,0,0,0,0,0,5.418,5.4313,5.4471,5.4622,5.4682,5.4802,5.4884,5.4936,5.5067,5.5119,5.5227,5.5351,5.5488,5.5576,5.571,5.5894,5.5931,5.5969,5.5978,5.5985,5.6001,5.6104,5.6122,5.5925,5.5925,5.5925,0,0,5.4209,5.433,5.4408,5.4617,5.4719,5.4853,5.4845,5.4987,5.5087,5.514,5.5314,5.5397,5.5542,5.5723,5.5808,5.5795,5.6063,5.5998,5.6002,5.6014,5.6115,5.6134,5.615,5.5932,5.5931,5.593,0,0,5.4332,5.4436,5.4573,5.4675,5.4829,5.4908,5.494,5.5102,5.516,5.5336,5.5379,5.5498,5.5732,5.5834,5.5916,5.6076,5.6102,5.6117,5.6169,5.6268,5.6283,5.6297,5.6355,5.6374,5.6132,5.6132,5.6132,0,5.4348,5.4553,5.4639,5.478,5.4871,5.4926,5.5065,5.5159,5.5348,5.5409,5.5392,5.5687,5.5788,5.5994,5.6033,5.6097,5.6137,5.6099,5.6274,5.6289,5.6304,5.636,5.6381,5.6133,5.6133,5.6133,5.6133,0,5.4566,5.4708,5.4799,5.4983,5.5083,5.5222,5.5328,5.542,5.5463,5.5543,5.5721,5.5845,5.6005,5.6057,5.6101,5.6269,5.6256,5.6255,5.6223,5.6322,5.6376,5.6398,5.6134,5.6134,5.6134,5.6133,0,0,5.4674,5.4903,5.4935,5.5019,5.5193,5.5303,5.5444,5.5602,5.5679,5.5807,5.5927,5.6123,5.6124,5.6217,5.6272,5.6359,5.6478,5.6348,5.6353,5.6368,5.6671,5.6671,5.6695,5.6496,5.65,5.6504,5.6659,0,5.4817,5.5072,5.5153,5.5366,5.5497,5.5551,5.5674,5.5793,5.5871,5.5993,5.6078,5.6216,5.6206,5.6263,5.6351,5.6445,5.654,5.6435,5.6608,5.6613,5.657,5.6723,5.6724,5.6865,5.6681,5.6685,5.6687,0,5.5019,5.5152,5.5378,5.5535,5.5594,5.5703,5.5854,5.597,5.6106,5.6156,5.626,5.6309,5.6457,5.6415,5.662,5.6546,5.6621,5.6678,5.6685,5.6705,5.6656,5.6747,5.6912,5.6933,5.6721,5.6718,5.6716,0,5.5075,5.531,5.5476,5.5546,5.5734,5.5809,5.5891,5.6023,5.6113,5.6245,5.6304,5.645,5.653,5.6641,5.6727,5.6689,5.6924,5.689,5.697,5.6968,5.7018,5.7013,5.7197,5.7065,5.7064,5.7064,5.7063,0,5.5227,5.5363,5.5504,5.5606,5.576,5.5851,5.6,5.6084,5.6202,5.632,5.6374,5.6484,5.659,5.6714,5.6781,5.694,5.6976,5.702,5.7037,5.7016,5.7011,5.7067,5.706,5.707,5.7068,5.7067,5.7066,0,5.5316,5.5416,5.5601,5.5764,5.5808,5.5914,5.6053,5.6153,5.6233,5.6382,5.6422,5.6547,5.6695,5.6791,5.6979,5.7025,5.7199,5.7212,5.7153,5.7162,5.7236,5.7228,5.7463,5.7499,5.7341,5.7343,5.7344,0,5.5407,5.5513,5.5688,5.5772,5.5854,5.5988,5.6081,5.6174,5.6267,5.643,5.6511,5.6662,5.6789,5.7022,5.7129,5.7273,5.7291,5.7363,5.7313,5.7289,5.7293,5.7286,5.7297,5.7371,5.7373,5.7374,5.7374,0,5.5558,5.5602,5.5734,5.5883,5.5992,5.6114,5.6236,5.6301,5.6415,5.6517,5.667,5.6768,5.696,5.711,5.7264,5.7346,5.738,5.7389,5.7416,5.7396,5.7358,5.738,5.7176,5.7384,5.7383,5.7382,5.7382,5.7381,5.5651,5.5748,5.5887,5.6032,5.6133,5.6246,5.6348,5.6441,5.6571,5.6736,5.6783,5.6942,5.7074,5.7285,5.737,5.7495,5.7486,5.7524,5.7534,5.7542,5.7543,5.7337,5.7523,5.7522,5.7522,5.7522,5.7522,0,5.5806,5.5897,5.603,5.6199,5.6313,5.6335,5.6471,5.6564,5.6704,5.6825,5.6949,5.7124,5.727,5.7388,5.7537,5.7615,5.7634,5.7651,5.7646,5.7665,5.7541,5.7504,5.7633,5.7633,5.7633,5.7633,5.7633,5.7633,5.5899,5.6065,5.6125,5.6342,5.6432,5.659,5.6666,5.6769,5.6867,5.706,5.7182,5.7259,5.7379,5.7537,5.7671,5.7702,5.7755,5.7769,5.7803,5.7686,5.7673,5.7662,5.7627,5.778,5.778,5.7916,5.7917,5.7918]}]]